Weather reports worldwide

Advertisment
San Sebastian/Igueldo, Spain (8027): temperature & dewpoint: 22.01.2020 08:00:00 - 28.01.2020 08:00:00 (CET)San Sebastian/Igueldo, Spain (8027): wind speed: 22.01.2020 08:00:00 - 28.01.2020 08:00:00 (CET)San Sebastian/Igueldo, Spain (8027): wind direction: 22.01.2020 08:00:00 - 28.01.2020 08:00:00 (CET)San Sebastian/Igueldo, Spain (8027): reduced air pressure: 22.01.2020 08:00:00 - 28.01.2020 08:00:00 (CET)San Sebastian/Igueldo, Spain (8027): visibility: 22.01.2020 08:00:00 - 28.01.2020 08:00:00 (CET)
Date & Time tt [°C] td [°C] ff [km/h] ff [kn] dd ppp [hPa] vv [km]
28.01.2020 08:00:00 - - - - - - -
28.01.2020 07:00:00 10,4 6,5 24 13 W 1017,6 8
28.01.2020 06:00:00 - - - - - - -
28.01.2020 05:00:00 - - - - - - -
28.01.2020 04:00:00 9,6 9,1 35 19 WNW 1016,9 6
28.01.2020 03:00:00 - - - - - - -
28.01.2020 02:00:00 - - - - - - -
28.01.2020 01:00:00 10,8 9,6 16 9 WNW 1014,9 18
28.01.2020 00:00:00 - - - - - - -
27.01.2020 23:00:00 - - - - - - -
27.01.2020 22:00:00 14,4 6,3 29 16 SSW 1013,3 25
27.01.2020 21:00:00 - - - - - - -
27.01.2020 20:00:00 - - - - - - -
27.01.2020 19:00:00 14,2 5,8 28 15 SSW 1013,0 30
27.01.2020 18:00:00 - - - - - - -
27.01.2020 17:00:00 - - - - - - -
27.01.2020 16:00:00 12,0 6,7 24 13 SSE 1014,6 35
27.01.2020 15:00:00 - - - - - - -
27.01.2020 14:00:00 - - - - - - -
27.01.2020 13:00:00 12,3 5,7 16 9 SSW 1016,9 50
27.01.2020 12:00:00 - - - - - - -
27.01.2020 11:00:00 - - - - - - -
27.01.2020 10:00:00 12,6 2,7 54 29 S 1015,7 40
27.01.2020 09:00:00 - - - - - - -
27.01.2020 08:00:00 - - - - - - -
27.01.2020 07:00:00 11,8 3,1 34 18 S 1016,6 30
27.01.2020 06:00:00 - - - - - - -
27.01.2020 05:00:00 - - - - - - -
27.01.2020 04:00:00 - - - - - - -
27.01.2020 03:00:00 - - - - - - -
27.01.2020 02:00:00 - - - - - - -
27.01.2020 01:00:00 9,9 1,3 22 12 S 1020,6 30
27.01.2020 00:00:00 - - - - - - -
26.01.2020 23:00:00 - - - - - - -
26.01.2020 22:00:00 8,8 0,0 16 9 SSE 1021,3 35
26.01.2020 21:00:00 - - - - - - -
26.01.2020 20:00:00 - - - - - - -
26.01.2020 19:00:00 10,4 4,1 8 4 SSE 1021,0 30
26.01.2020 18:00:00 - - - - - - -
26.01.2020 17:00:00 - - - - - - -
26.01.2020 16:00:00 11,6 4,6 8 4 N 1020,9 40
26.01.2020 15:00:00 - - - - - - -
26.01.2020 14:00:00 - - - - - - -
26.01.2020 13:00:00 11,4 6,3 4 2 W 1021,3 30
26.01.2020 12:00:00 - - - - - - -
26.01.2020 11:00:00 - - - - - - -
26.01.2020 10:00:00 10,0 6,9 8 4 S 1022,6 50
26.01.2020 09:00:00 - - - - - - -
26.01.2020 08:00:00 - - - - - - -
26.01.2020 07:00:00 8,5 6,3 4 2 S 1020,2 30
26.01.2020 06:00:00 - - - - - - -
26.01.2020 05:00:00 - - - - - - -
26.01.2020 04:00:00 8,2 7,1 9 5 S 1018,8 30
26.01.2020 03:00:00 - - - - - - -
26.01.2020 02:00:00 - - - - - - -
26.01.2020 01:00:00 9,1 7,2 13 7 WSW 1018,7 40
26.01.2020 00:00:00 - - - - - - -
25.01.2020 23:00:00 - - - - - - -
25.01.2020 22:00:00 - - - - - - -
25.01.2020 21:00:00 - - - - - - -
25.01.2020 20:00:00 - - - - - - -
25.01.2020 19:00:00 10,8 6,2 5 3 S 1016,2 40
25.01.2020 18:00:00 - - - - - - -
25.01.2020 17:00:00 - - - - - - -
25.01.2020 16:00:00 11,5 4,7 29 16 SSE 1016,2 40
25.01.2020 15:00:00 - - - - - - -
25.01.2020 14:00:00 - - - - - - -
25.01.2020 13:00:00 12,8 5,2 22 12 SSE 1017,6 30
25.01.2020 12:00:00 - - - - - - -
25.01.2020 11:00:00 - - - - - - -
25.01.2020 10:00:00 10,7 3,7 16 9 SSE 1018,1 40
25.01.2020 09:00:00 - - - - - - -
25.01.2020 08:00:00 - - - - - - -
25.01.2020 07:00:00 10,4 3,7 18 10 SSE 1017,5 40
25.01.2020 06:00:00 - - - - - - -
25.01.2020 05:00:00 - - - - - - -
25.01.2020 04:00:00 10,6 3,9 11 6 SSE 1018,1 30
25.01.2020 03:00:00 - - - - - - -
25.01.2020 02:00:00 - - - - - - -
25.01.2020 01:00:00 10,9 3,9 18 10 SSE 1018,7 30
25.01.2020 00:00:00 - - - - - - -
24.01.2020 23:00:00 - - - - - - -
24.01.2020 22:00:00 11,1 4,3 26 14 S 1019,2 30
24.01.2020 21:00:00 - - - - - - -
24.01.2020 20:00:00 - - - - - - -
24.01.2020 19:00:00 11,6 4,6 18 10 SSE 1018,8 30
24.01.2020 18:00:00 - - - - - - -
24.01.2020 17:00:00 - - - - - - -
24.01.2020 16:00:00 13,1 5,3 22 12 SSE 1018,5 30
24.01.2020 15:00:00 - - - - - - -
24.01.2020 14:00:00 - - - - - - -
24.01.2020 13:00:00 12,8 5,0 13 7 SSE 1019,8 20
24.01.2020 12:00:00 - - - - - - -
24.01.2020 11:00:00 - - - - - - -
24.01.2020 10:00:00 10,4 4,1 31 17 SSE 1019,3 25
24.01.2020 09:00:00 - - - - - - -
24.01.2020 08:00:00 - - - - - - -
24.01.2020 07:00:00 10,2 3,9 31 17 SSE 1018,8 30
24.01.2020 06:00:00 - - - - - - -
24.01.2020 05:00:00 - - - - - - -
24.01.2020 04:00:00 10,0 4,0 35 19 SSE 1019,2 30
24.01.2020 03:00:00 - - - - - - -
24.01.2020 02:00:00 - - - - - - -
24.01.2020 01:00:00 9,7 3,2 35 19 SSE 1019,5 25
24.01.2020 00:00:00 - - - - - - -
23.01.2020 23:00:00 - - - - - - -
23.01.2020 22:00:00 9,4 3,8 35 19 SSE 1019,1 25
23.01.2020 21:00:00 - - - - - - -
23.01.2020 20:00:00 - - - - - - -
23.01.2020 19:00:00 9,4 4,2 31 17 SSE 1018,9 20
23.01.2020 18:00:00 - - - - - - -
23.01.2020 17:00:00 - - - - - - -
23.01.2020 16:00:00 9,9 5,1 13 7 S 1018,2 20
23.01.2020 15:00:00 - - - - - - -
23.01.2020 14:00:00 - - - - - - -
23.01.2020 13:00:00 8,2 7,1 11 6 SSE 1019,9 20
23.01.2020 12:00:00 - - - - - - -
23.01.2020 11:00:00 - - - - - - -
23.01.2020 10:00:00 7,4 6,5 13 7 S 1020,2 12
23.01.2020 09:00:00 - - - - - - -
23.01.2020 08:00:00 - - - - - - -
23.01.2020 07:00:00 6,5 5,0 11 6 SSE 1020,2 20
23.01.2020 06:00:00 - - - - - - -
23.01.2020 05:00:00 - - - - - - -
23.01.2020 04:00:00 6,5 5,0 4 2 S 1020,8 25
23.01.2020 03:00:00 - - - - - - -
23.01.2020 02:00:00 - - - - - - -
23.01.2020 01:00:00 7,1 6,0 4 2 S 1021,2 25
23.01.2020 00:00:00 - - - - - - -
22.01.2020 23:00:00 - - - - - - -
22.01.2020 22:00:00 7,2 5,8 4 2 S 1021,6 20
22.01.2020 21:00:00 - - - - - - -
22.01.2020 20:00:00 - - - - - - -
22.01.2020 19:00:00 7,1 5,6 9 5 SW 1021,8 20
22.01.2020 18:00:00 - - - - - - -
22.01.2020 17:00:00 - - - - - - -
22.01.2020 16:00:00 8,3 6,4 8 4 NNW 1022,6 12
22.01.2020 15:00:00 - - - - - - -
22.01.2020 14:00:00 - - - - - - -
22.01.2020 13:00:00 7,0 5,2 0 0 N 1024,9 12
22.01.2020 12:00:00 - - - - - - -
22.01.2020 11:00:00 - - - - - - -
22.01.2020 10:00:00 6,9 4,9 4 2 NNE 1024,7 15
22.01.2020 09:00:00 - - - - - - -
22.01.2020 08:00:00 - - - - - - -

tt = temperature
td = dewpoint
ff = wind speed
dd = wind direction
ppp = reduced air pressure
vv = visibility

Next stations